Waarnemingen

Advertentie
Mijn weer
Santiago de Compostela/Labacolla, Spanje (8042): temperatuur & dauwpunt: 19.05.2018 12:00:00 - 25.05.2018 12:00:00 (CEST)Santiago de Compostela/Labacolla, Spanje (8042): windsnelheid: 19.05.2018 12:00:00 - 25.05.2018 12:00:00 (CEST)Santiago de Compostela/Labacolla, Spanje (8042): windrichting: 19.05.2018 12:00:00 - 25.05.2018 12:00:00 (CEST)Santiago de Compostela/Labacolla, Spanje (8042): luchtdruk: 19.05.2018 12:00:00 - 25.05.2018 12:00:00 (CEST)Santiago de Compostela/Labacolla, Spanje (8042): zicht: 19.05.2018 12:00:00 - 25.05.2018 12:00:00 (CEST)
Datum & Tijd tt [°C] td [°C] ff [km/u] ff [kn] dd ppp [hPa] vv [km]
25.05.2018 12:00:00 14,4 12,3 13 7 N 1014,5 9
25.05.2018 11:00:00 13,7 12,3 11 6 N 1014,6 6
25.05.2018 10:00:00 13,6 12,7 9 5 NNO 1014,4 3,8
25.05.2018 09:00:00 13,8 12,7 9 5 N 1014,1 6
25.05.2018 08:00:00 13,7 12,8 9 5 N 1013,6 6
25.05.2018 07:00:00 13,4 12,5 5 3 NNO 1013,6 4,8
25.05.2018 06:00:00 13,3 12,2 11 6 N 1013,2 6
25.05.2018 05:00:00 13,1 11,8 13 7 N 1013,3 6
25.05.2018 04:00:00 13,1 11,9 9 5 N 1013,8 7
25.05.2018 03:00:00 13,1 11,8 16 9 N 1014,4 7
25.05.2018 02:00:00 13,6 12,0 4 2 NNO 1015,3 10
25.05.2018 01:00:00 14,3 12,7 5 3 NNO 1014,5 9
25.05.2018 00:00:00 14,7 13,9 4 2 NNO 1014,6 4,9
24.05.2018 23:00:00 15,1 14,1 5 3 NNO 1014,3 5
24.05.2018 22:00:00 14,7 14,1 4 2 NNO 1014,2 8
24.05.2018 21:00:00 15,1 14,1 13 7 NNW 1014,0 12
24.05.2018 20:00:00 15,3 14,3 4 2 NO 1015,3 15
24.05.2018 19:00:00 15,2 14,0 15 8 NW 1015,0 8
24.05.2018 18:00:00 15,9 14,3 18 10 NW 1014,6 10
24.05.2018 17:00:00 22,3 14,7 8 4 NNO 1012,2 40
24.05.2018 16:00:00 23,3 12,1 4 2 NO 1012,0 30
24.05.2018 15:00:00 25,6 9,4 4 2 O 1012,0 30
24.05.2018 14:00:00 25,5 11,5 4 2 O 1012,4 40
24.05.2018 13:00:00 23,5 13,2 5 3 O 1013,2 30
24.05.2018 12:00:00 22,5 14,2 4 2 NO 1013,4 30
24.05.2018 11:00:00 20,4 12,2 4 2 NNO 1013,6 40
24.05.2018 10:00:00 18,1 13,2 4 2 OZO 1014,5 30
24.05.2018 09:00:00 15,5 12,1 4 2 ONO 1014,8 20
24.05.2018 08:00:00 13,8 12,0 2 1 N 1015,2 12
24.05.2018 07:00:00 12,8 11,4 2 1 N 1015,1 14
24.05.2018 06:00:00 13,7 11,7 0 0 N 1015,2 15
24.05.2018 05:00:00 14,7 11,8 4 2 ZO 1015,4 20
24.05.2018 04:00:00 14,0 10,6 0 0 N 1015,8 16
24.05.2018 03:00:00 15,1 11,3 0 0 N 1015,8 14
24.05.2018 02:00:00 14,7 10,9 0 0 N 1016,1 15
24.05.2018 01:00:00 15,1 11,3 0 0 N 1016,0 17
24.05.2018 00:00:00 16,3 11,2 2 1 WNW 1016,1 21
23.05.2018 23:00:00 16,8 11,6 5 3 ZW 1015,9 20
23.05.2018 22:00:00 17,4 12,7 0 0 N 1015,5 16
23.05.2018 21:00:00 18,5 12,0 8 4 ZZW 1015,3 20
23.05.2018 20:00:00 19,5 12,7 8 4 ZW 1014,6 30
23.05.2018 19:00:00 20,8 13,8 11 6 ZZW 1014,1 22
23.05.2018 18:00:00 22,3 13,1 9 5 WZW 1013,8 23
23.05.2018 17:00:00 23,1 12,2 13 7 W 1013,8 30
23.05.2018 16:00:00 22,8 13,7 13 7 W 1014,2 18
23.05.2018 15:00:00 21,4 13,0 11 6 ZW 1014,9 21
23.05.2018 14:00:00 21,3 12,4 9 5 ZZW 1015,1 20
23.05.2018 13:00:00 20,8 12,4 4 2 W 1015,4 22
23.05.2018 12:00:00 18,6 11,8 5 3 ZZW 1015,7 29
23.05.2018 11:00:00 17,2 11,7 4 2 ONO 1015,8 15
23.05.2018 10:00:00 15,4 11,2 4 2 O 1015,8 11
23.05.2018 09:00:00 12,7 10,0 4 2 OZO 1016,2 25
23.05.2018 08:00:00 10,6 8,9 4 2 OZO 1016,3 20
23.05.2018 07:00:00 10,1 8,3 0 0 N 1015,8 14
23.05.2018 06:00:00 10,7 8,5 0 0 N 1015,6 17
23.05.2018 05:00:00 11,9 8,4 4 2 O 1015,6 20
23.05.2018 04:00:00 11,8 7,9 0 0 N 1016,0 30
23.05.2018 03:00:00 12,5 8,6 0 0 N 1016,2 30
23.05.2018 02:00:00 12,6 9,8 0 0 N 1016,6 15
23.05.2018 01:00:00 13,8 10,6 4 2 NNO 1016,5 20
23.05.2018 00:00:00 15,1 7,7 0 0 N 1016,4 30
22.05.2018 23:00:00 17,2 8,5 5 3 N 1015,5 25
22.05.2018 22:00:00 19,0 12,5 11 6 NNW 1014,5 30
22.05.2018 21:00:00 20,4 12,6 15 8 WNW 1013,8 30
22.05.2018 20:00:00 21,5 12,9 15 8 NW 1013,4 28
22.05.2018 19:00:00 21,7 14,2 13 7 W 1013,2 29
22.05.2018 18:00:00 23,0 14,3 8 4 Z 1012,5 24
22.05.2018 17:00:00 26,1 12,2 8 4 NW 1011,9 30
22.05.2018 16:00:00 25,1 12,0 8 4 NW 1012,5 23
22.05.2018 15:00:00 24,1 12,2 5 3 Z 1012,8 30
22.05.2018 14:00:00 23,1 13,9 4 2 Z 1013,2 30
22.05.2018 13:00:00 20,4 13,4 4 2 ONO 1013,9 26
22.05.2018 12:00:00 17,5 13,0 4 2 NNO 1014,4 11
22.05.2018 11:00:00 13,2 12,4 4 2 N 1015,0 4,0
22.05.2018 10:00:00 12,0 11,7 4 2 NO 1015,0 -
22.05.2018 09:00:00 11,8 11,5 2 1 OZO 1014,6 0,1
22.05.2018 08:00:00 11,3 11,0 0 0 N 1014,5 0,2
22.05.2018 07:00:00 11,5 11,2 4 2 ZO 1014,2 -
22.05.2018 06:00:00 11,7 11,4 4 2 ZZO 1013,7 -
22.05.2018 05:00:00 12,0 11,7 2 1 ZW 1013,8 0,9
22.05.2018 04:00:00 12,2 11,7 0 0 N 1013,6 -
22.05.2018 03:00:00 12,2 11,7 2 1 O 1013,8 -
22.05.2018 02:00:00 12,5 11,7 4 2 NO 1013,8 1,7
22.05.2018 01:00:00 12,2 11,5 4 2 N 1013,9 1,9
22.05.2018 00:00:00 12,3 11,2 5 3 N 1014,0 2,1
21.05.2018 23:00:00 12,9 11,1 9 5 NW 1013,6 9
21.05.2018 22:00:00 14,1 11,1 2 1 NNO 1013,1 12
21.05.2018 21:00:00 16,3 11,7 5 3 N 1012,3 12
21.05.2018 20:00:00 18,2 11,8 5 3 NO 1011,6 25
21.05.2018 19:00:00 19,9 11,2 13 7 W 1010,6 18
21.05.2018 18:00:00 20,7 11,0 16 9 W 1010,2 30
21.05.2018 17:00:00 20,3 11,2 13 7 W 1010,3 30
21.05.2018 16:00:00 20,6 12,3 16 9 W 1010,3 22
21.05.2018 15:00:00 20,6 12,3 8 4 WZW 1010,1 25
21.05.2018 14:00:00 18,8 11,7 8 4 NNW 1010,9 25
21.05.2018 13:00:00 16,7 11,6 9 5 NW 1011,3 10
21.05.2018 12:00:00 15,5 10,9 2 1 O 1011,5 12
21.05.2018 11:00:00 12,6 10,8 0 0 N 1012,0 5
21.05.2018 10:00:00 10,7 10,4 5 3 WNW 1012,3 4,8
21.05.2018 09:00:00 9,8 9,5 4 2 W 1012,1 1,7
21.05.2018 08:00:00 9,5 9,2 4 2 Z 1012,0 0,1
21.05.2018 07:00:00 9,6 9,3 2 1 ZZO 1011,5 -
21.05.2018 06:00:00 9,0 8,2 5 3 ZZW 1011,4 -
21.05.2018 05:00:00 9,8 8,9 2 1 ZZO 1011,4 7
21.05.2018 04:00:00 10,1 8,8 0 0 N 1011,7 9
21.05.2018 03:00:00 11,2 8,9 8 4 ZO 1011,9 20
21.05.2018 02:00:00 12,0 7,3 4 2 ZO 1012,1 25
21.05.2018 01:00:00 12,6 6,6 0 0 N 1012,2 30
21.05.2018 00:00:00 13,5 5,1 0 0 N 1012,3 30
20.05.2018 23:00:00 15,2 4,0 2 1 ONO 1011,9 30
20.05.2018 22:00:00 17,3 2,9 4 2 NO 1011,1 30
20.05.2018 21:00:00 20,1 3,4 5 3 NO 1010,5 30
20.05.2018 20:00:00 22,7 5,3 9 5 NNO 1009,8 30
20.05.2018 19:00:00 24,3 7,8 15 8 N 1009,5 30
20.05.2018 18:00:00 25,6 7,3 9 5 NNO 1009,5 30
20.05.2018 17:00:00 25,9 9,4 11 6 N 1009,9 40
20.05.2018 16:00:00 26,3 9,2 8 4 NNO 1010,5 30
20.05.2018 15:00:00 24,1 7,4 5 3 NO 1011,7 30
20.05.2018 14:00:00 23,3 11,0 4 2 NNO 1012,5 30
20.05.2018 13:00:00 21,2 11,4 8 4 ZO 1013,4 28
20.05.2018 12:00:00 19,5 11,3 8 4 OZO 1013,8 30
20.05.2018 11:00:00 16,5 9,9 8 4 O 1014,9 28
20.05.2018 10:00:00 14,3 8,3 4 2 NO 1015,5 27
20.05.2018 09:00:00 11,3 7,0 4 2 NO 1016,1 25
20.05.2018 08:00:00 9,5 5,8 0 0 N 1016,6 30
20.05.2018 07:00:00 9,3 5,1 2 1 NNO 1016,6 30
20.05.2018 06:00:00 9,4 4,8 0 0 N 1016,8 30
20.05.2018 05:00:00 10,1 4,4 4 2 NO 1016,8 25
20.05.2018 04:00:00 10,0 3,5 2 1 NNO 1017,3 30
20.05.2018 03:00:00 11,2 3,9 5 3 N 1017,8 30
20.05.2018 02:00:00 11,8 4,5 4 2 N 1018,2 25
20.05.2018 01:00:00 13,0 3,8 2 1 N 1018,3 30
20.05.2018 00:00:00 14,5 3,3 4 2 NNO 1018,1 30
19.05.2018 23:00:00 16,2 3,8 4 2 NO 1017,6 30
19.05.2018 22:00:00 18,4 5,0 2 1 OZO 1016,7 30
19.05.2018 21:00:00 21,8 8,3 5 3 O 1015,8 30
19.05.2018 20:00:00 23,9 8,2 8 4 NO 1015,1 30
19.05.2018 19:00:00 25,6 8,4 11 6 N 1014,8 30
19.05.2018 18:00:00 25,7 8,7 13 7 NNO 1014,9 30
19.05.2018 17:00:00 25,9 7,2 8 4 NO 1015,2 30
19.05.2018 16:00:00 25,3 10,0 9 5 N 1015,7 30
19.05.2018 15:00:00 25,3 12,2 11 6 N 1016,1 30
19.05.2018 14:00:00 23,9 11,1 5 3 NW 1016,8 26
19.05.2018 13:00:00 23,3 12,4 4 2 ONO 1017,0 30
19.05.2018 12:00:00 21,3 13,3 4 2 ONO 1017,4 30

tt = temperatuur
td = dauwpunt
ff = windsnelheid
dd = windrichting
ppp = luchtdruk
vv = zicht

Weerstations in de omgeving